KB5DPX Weather Reports


Display with metric or nautical units.
time (UTC)temp
F
wind
direction
speed
MPH
gust
MPH
rain 1hr
in
rain 24hr
in
rain mn
in
humidity
%
barometer
mb
20260902224247 72 0.0 0.0 0.00 0.09 0.09 74 1013.5
20260902223757 72 0.0 0.0 0.00 0.09 0.09 75 1013.4
20260902223302 72 0.0 0.0 0.00 0.09 0.09 74 1013.4
20260902222751 72 0.0 0.0 0.00 0.09 0.09 77 1013.4
20260902222256 72 0.0 0.0 0.00 0.09 0.09 81 1013.5
20260902221804 72 0.0 0.0 0.00 0.09 0.09 83 1013.5
20260902221254 72 0.0 0.0 0.00 0.09 0.09 84 1013.6
20260902220745 72 0.0 0.0 0.00 0.09 0.09 85 1013.6
20260902220249 72 0.0 0.0 0.00 0.09 0.09 85 1013.5
20260902215754 72 0.0 0.0 0.00 0.09 0.09 84 1013.4
20260902215306 72 0.0 0.0 0.00 0.09 0.09 84 1013.5
20260902214751 72 0.0 0.0 0.00 0.09 0.09 84 1013.5
20260902214258 72 0.0 0.0 0.00 0.09 0.09 85 1013.6
20260902213254 72 0.0 0.0 0.00 0.09 0.09 84 1013.4
20260902212803 72 0.0 0.0 0.00 0.09 0.09 84 1013.4
20260902212255 73 0.0 0.0 0.00 0.09 0.09 83 1013.3
20260902211801 73 0.0 0.0 0.00 0.09 0.09 83 1013.4
20260902211251 73 0.0 0.0 0.00 0.09 0.09 83 1013.3
20260902210758 73 0.0 0.0 0.00 0.09 0.09 80 1013.3
20260902210246 73 0.0 0.0 0.00 0.09 0.09 79 1013.2
20260902205755 73 0.0 0.0 0.00 0.09 0.09 81 1013.2
20260902205306 73 0.0 0.0 0.00 0.09 0.09 82 1013.4
20260902204753 73 0.0 0.0 0.00 0.09 0.09 80 1013.4
20260902204301 73 0.0 0.0 0.00 0.09 0.09 79 1013.5
20260902203749 73 0.0 0.0 0.00 0.09 0.09 79 1013.5
20260902203252 73 0.0 0.0 0.00 0.09 0.09 76 1013.7
20260902202801 73 0.0 0.0 0.00 0.09 0.09 77 1013.7
20260902202252 73 0.0 0.0 0.00 0.09 0.09 82 1013.8
20260902201758 73 0.0 0.0 0.00 0.09 0.09 82 1013.8
20260902200753 72 0.0 0.0 0.00 0.09 0.09 83 1013.8
20260902200301 72 0.0 0.0 0.00 0.09 0.09 85 1013.8
20260902195750 72 0.0 0.0 0.00 0.09 0.09 84 1013.8
20260902195257 72 0.0 0.0 0.00 0.09 0.09 83 1013.9
20260902194745 73 0.0 0.0 0.00 0.09 0.09 82 1013.9
20260902194253 73 0.0 0.0 0.00 0.09 0.09 82 1014.0
20260902193248 73 0.0 0.0 0.00 0.09 0.09 80 1014.1
20260902192755 73 0.0 0.0 0.00 0.09 0.09 78 1014.1
20260902192259 73 0.0 0.0 0.00 0.09 0.09 79 1014.1
20260902191746 73 0.0 0.0 0.00 0.09 0.09 77 1014.3
20260902191252 74 0.0 0.0 0.00 0.09 0.09 77 1014.3
20260902190812 74 0.0 0.0 0.00 0.09 0.09 78 1014.4
20260902190250 74 0.0 0.0 0.00 0.09 0.09 77 1014.4
20260902185808 74 0.0 0.0 0.00 0.09 0.09 73 1014.3
20260902185247 74 0.0 0.0 0.00 0.09 0.09 74 1014.3
20260902184308 74 0.0 0.0 0.00 0.09 0.09 75 1014.3
20260902183747 74 0.0 0.0 0.00 0.09 0.09 78 1014.1
20260902183303 74 0.0 0.0 0.00 0.09 0.09 80 1014.2
20260902182812 74 0.0 0.0 0.00 0.09 0.09 81 1014.3
20260902182258 74 0.0 0.0 0.00 0.09 0.09 82 1014.3
20260902181809 73 0.0 0.0 0.00 0.09 0.09 82 1014.3
20260902181258 74 0.0 0.0 0.00 0.09 0.09 82 1014.3
20260902180803 74 0.0 0.0 0.00 0.09 0.09 82 1014.3
20260902180255 74 0.0 0.0 0.00 0.09 0.09 80 1014.3
20260902175801 75 0.0 0.0 0.00 0.09 0.09 80 1014.3
20260902175250 74 0.0 0.0 0.00 0.09 0.09 81 1014.2
20260902174753 74 0.0 0.0 0.00 0.09 0.09 82 1014.3
20260902174259 73 0.0 0.0 0.00 0.09 0.09 82 1014.3
20260902173749 73 0.0 0.0 0.00 0.09 0.09 83 1014.3
20260902173259 72 0.0 0.0 0.00 0.09 0.09 83 1014.1
20260902172747 72 0.0 0.0 0.00 0.09 0.09 83 1014.1
20260902171758 71 0.0 0.0 0.00 0.09 0.09 86 1014.0
20260902171247 70 0.0 0.0 0.00 0.09 0.09 86 1014.0
20260902170756 70 0.0 0.0 0.00 0.09 0.09 86 1013.9
20260902170305 70 0.0 0.0 0.00 0.09 0.09 86 1013.4
20260902165754 70 0.0 0.0 0.00 0.09 0.09 86 1013.6
20260902165300 70 0.0 0.0 0.00 0.09 0.09 86 1013.9
20260902164751 70 0.0 0.0 0.00 0.09 0.09 86 1014.0
20260902164258 70 0.0 0.0 0.00 0.09 0.09 86 1014.2
20260902163748 70 0.0 0.0 0.00 0.09 0.09 86 1014.0
20260902163256 70 0.0 0.0 0.00 0.09 0.09 87 1014.0
20260902162801 70 0.0 0.0 0.00 0.09 0.09 87 1013.9
20260902162252 70 0.0 0.0 0.00 0.09 0.09 86 1013.9
20260902161755 70 0.0 0.0 0.00 0.09 0.09 86 1014.2
20260902161303 70 0.0 0.0 0.00 0.09 0.09 85 1014.3
20260902160752 70 0.0 0.0 0.00 0.09 0.09 84 1013.9
20260902160301 69 0.0 0.0 0.00 0.09 0.09 84 1013.9
20260902155750 69 0.0 0.0 0.01 0.09 0.09 84 1014.0
20260902155254 69 0.0 0.0 0.01 0.09 0.09 85 1013.9
20260902154759 69 0.0 0.0 0.01 0.09 0.09 85 1014.0
20260902154250 69 0.0 0.0 0.01 0.09 0.09 85 1014.0
20260902153755 69 0.0 0.0 0.01 0.09 0.09 85 1014.1
20260902153303 69 0.0 0.0 0.01 0.09 0.09 83 1014.1
20260902152751 69 0.0 0.0 0.01 0.09 0.09 83 1014.2
20260902151747 68 0.0 0.0 0.01 0.09 0.09 85 1014.3
20260902151255 69 0.0 0.0 0.01 0.09 0.09 85 1014.4
20260902150802 69 0.0 0.0 0.01 0.09 0.09 85 1014.6
20260902150253 69 0.0 0.0 0.01 0.09 0.09 86 1014.7
20260902145758 69 0.0 0.0 0.00 0.08 0.08 85 1014.9
20260902145246 69 0.0 0.0 0.00 0.08 0.08 84 1014.8
20260902144753 69 0.0 0.0 0.00 0.08 0.08 84 1014.5
20260902144303 69 0.0 0.0 0.00 0.08 0.08 81 1014.3
20260902143750 69 0.0 0.0 0.00 0.08 0.08 74 1013.8
20260902142756 68 0.0 0.0 0.00 0.08 0.08 71 1013.5
20260902142246 67 0.0 0.0 0.00 0.08 0.08 70 1013.2
20260902141755 67 0.0 0.0 0.00 0.08 0.08 70 1013.2
20260902141305 66 0.0 0.0 0.01 0.08 0.08 70 1013.0
20260902140754 66 0.0 0.0 0.02 0.08 0.08 72 1012.8
20260902140301 66 0.0 0.0 0.04 0.08 0.08 73 1012.6
20260902135750 66 0.0 0.0 0.06 0.08 0.08 73 1012.2
20260902135257 66 0.0 0.0 0.07 0.08 0.08 75 1011.7
20260902134805 66 0.0 0.0 0.08 0.08 0.08 77 1011.5
20260902134254 66 0.0 0.0 0.08 0.08 0.08 80 1011.7
20260902133804 67 0.0 0.0 0.08 0.08 0.08 83 1012.4
20260902133254 67 0.0 0.0 0.08 0.08 0.08 84 1013.3
20260902132801 67 0.0 0.0 0.08 0.08 0.08 85 1013.8
20260902132249 67 0.0 0.0 0.08 0.08 0.08 87 1014.4
20260902131752 67 0.0 0.0 0.08 0.08 0.08 87 1014.6
20260902131258 68 0.0 0.0 0.07 0.07 0.07 87 1014.9
20260902130252 68 0.0 0.0 0.04 0.04 0.04 87 1015.9
20260902125758 68 0.0 0.0 0.02 0.02 0.02 87 1016.5
20260902125247 68 0.0 0.0 0.01 0.01 0.01 87 1016.4
20260902124756 68 0.0 0.0 0.00 0.00 0.00 83 1016.3
20260902124247 67 0.0 0.0 0.00 0.00 0.00 74 1016.1
20260902123757 67 0.0 0.0 0.00 0.00 0.00 67 1016.0
20260902123306 67 0.0 0.0 0.00 0.00 0.00 64 1016.1
20260902122755 67 0.0 0.0 0.00 0.00 0.00 63 1015.8
20260902122305 68 0.0 0.0 0.00 0.00 0.00 63 1015.5
20260902121755 68 0.0 0.0 0.00 0.00 0.00 62 1015.2
20260902121302 69 0.0 0.0 0.00 0.00 0.00 61 1015.1
20260902120752 69 0.0 0.0 0.00 0.00 0.00 60 1015.0
20260902120300 69 0.0 0.0 0.00 0.00 0.00 60 1014.6
20260902115749 69 0.0 0.0 0.00 0.00 0.00 60 1014.2
20260902115256 69 0.0 0.0 0.00 0.00 0.00 61 1013.9
20260902114800 69 0.0 0.0 0.00 0.00 0.00 61 1013.8
20260902113746 69 0.0 0.0 0.00 0.00 0.00 61 1013.6
20260902113302 69 0.0 0.0 0.00 0.00 0.00 61 1013.5
20260902112750 69 0.0 0.0 0.00 0.00 0.00 61 1013.6
20260902112255 69 0.0 0.0 0.00 0.00 0.00 61 1013.4
20260902111746 69 0.0 0.0 0.00 0.00 0.00 61 1013.0
20260902111257 69 0.0 0.0 0.00 0.00 0.00 61 1013.1
20260902110807 69 0.0 0.0 0.00 0.00 0.00 61 1013.1
20260902110246 69 0.0 0.0 0.00 0.00 0.00 61 1012.9
20260902105802 69 0.0 0.0 0.00 0.00 0.00 61 1012.8
20260902105312 69 0.0 0.0 0.00 0.00 0.00 61 1012.9
20260902104756 69 0.0 0.0 0.00 0.00 0.00 61 1012.9
20260902104304 69 0.0 0.0 0.00 0.00 0.00 62 1012.8
20260902103755 69 0.0 0.0 0.00 0.00 0.00 61 1012.8
20260902103304 69 0.0 0.0 0.00 0.00 0.00 62 1012.9
20260902102753 69 0.0 0.0 0.00 0.00 0.00 62 1013.0
20260902102257 69 0.0 0.0 0.00 0.00 0.00 63 1013.1
20260902101801 69 0.0 0.0 0.00 0.00 0.00 63 1013.1
20260902101251 70 0.0 0.0 0.00 0.00 0.00 62 1013.2
20260902100801 70 0.0 0.0 0.00 0.00 0.00 62 1013.3
20260902100250 70 0.0 0.0 0.00 0.00 0.00 62 1013.5
20260902095756 70 0.0 0.0 0.00 0.00 0.00 63 1013.3
20260902095306 69 0.0 0.0 0.00 0.00 0.00 63 1013.3
20260902094752 69 0.0 0.0 0.00 0.00 0.00 63 1013.3
20260902094300 69 0.0 0.0 0.00 0.00 0.00 66 1013.3
20260902093747 69 0.0 0.0 0.00 0.00 0.00 65 1013.1
20260902093255 69 0.0 0.0 0.00 0.00 0.00 66 1013.2
20260902092802 69 0.0 0.0 0.00 0.00 0.00 66 1013.2
20260902092251 69 0.0 0.0 0.00 0.00 0.00 67 1013.0
20260902091758 69 0.0 0.0 0.00 0.00 0.00 68 1013.0
20260902091246 70 0.0 0.0 0.00 0.00 0.00 68 1013.0
20260902090755 70 0.0 0.0 0.00 0.00 0.00 68 1012.8
20260902090303 70 0.0 0.0 0.00 0.00 0.00 70 1012.7
20260902085750 71 0.0 0.0 0.00 0.00 0.00 69 1012.6
20260902084801 71 0.0 0.0 0.00 0.00 0.00 69 1012.7
20260902084251 71 0.0 0.0 0.00 0.00 0.00 69 1012.7
20260902083758 72 0.0 0.0 0.00 0.00 0.00 69 1012.6
20260902083306 72 0.0 0.0 0.00 0.00 0.00 68 1012.6
20260902082751 72 0.0 0.0 0.00 0.00 0.00 68 1012.6
20260902082301 72 0.0 0.0 0.00 0.00 0.00 68 1012.6
20260902081255 73 0.0 0.0 0.00 0.00 0.00 69 1012.7
20260902080805 73 0.0 0.0 0.00 0.00 0.00 69 1012.6
20260902080256 73 0.0 0.0 0.00 0.00 0.00 70 1012.5
20260902075803 73 0.0 0.0 0.00 0.00 0.00 70 1012.6
20260902075252 73 0.0 0.0 0.00 0.00 0.00 70 1012.6
20260902074759 73 0.0 0.0 0.00 0.00 0.00 71 1012.7
20260902074249 73 0.0 0.0 0.00 0.00 0.00 71 1012.6
20260902073757 73 0.0 0.0 0.00 0.00 0.00 71 1012.7
20260902073305 73 0.0 0.0 0.00 0.00 0.00 72 1012.6
20260902072754 73 0.0 0.0 0.00 0.00 0.00 72 1012.7
20260902072302 73 0.0 0.0 0.00 0.00 0.00 71 1012.7
20260902071750 73 0.0 0.0 0.00 0.00 0.00 71 1012.7
20260902071253 74 0.0 0.0 0.00 0.00 0.00 70 1012.7
20260902070803 74 0.0 0.0 0.00 0.00 0.00 70 1012.7
20260902070251 74 0.0 0.0 0.00 0.00 0.00 70 1012.7
20260902065800 74 0.0 0.0 0.00 0.00 0.00 70 1012.7
20260902065314 74 0.0 0.0 0.00 0.00 0.00 70 1012.7
20260902064801 74 0.0 0.0 0.00 0.00 0.00 70 1012.7
20260902064308 74 0.0 0.0 0.00 0.00 0.00 68 1012.6
20260902063757 74 0.0 0.0 0.00 0.00 0.00 66 1012.6
20260902063308 74 0.0 0.0 0.00 0.00 0.00 65 1012.4
20260902062754 74 0.0 0.0 0.00 0.00 0.00 63 1012.4
20260902062306 74 0.0 0.0 0.00 0.00 0.00 63 1012.4
20260902061754 74 0.0 0.0 0.00 0.00 0.00 62 1012.4
20260902061300 74 0.0 0.0 0.00 0.00 0.00 62 1012.4
20260902060808 74 0.0 0.0 0.00 0.00 0.00 63 1012.4
20260902060256 74 0.0 0.0 0.00 0.00 0.00 62 1012.4
20260902055805 74 0.0 0.0 0.00 0.00 0.00 61 1012.3
20260902055255 73 0.0 0.0 0.00 0.00 0.00 62 1012.2
20260902054801 73 0.0 0.0 0.00 0.00 0.00 62 1012.2
20260902054251 73 0.0 0.0 0.00 0.00 0.00 61 1012.1
20260902053759 73 0.0 0.0 0.00 0.00 0.00 62 1012.1
20260902053247 73 0.0 0.0 0.00 0.00 0.00 61 1012.1
20260902052258 73 0.0 0.0 0.00 0.00 0.00 61 1012.1
20260902051749 73 0.0 0.0 0.00 0.00 0.00 60 1012.0
20260902051258 73 0.0 0.0 0.00 0.00 0.00 60 1012.0
20260902050803 73 0.0 0.0 0.00 0.00 0.00 60 1012.0
20260902050252 73 0.0 0.0 0.00 0.00 0.00 60 1012.0
20260902045758 72 0.0 0.0 0.00 0.00 0.00 59 1012.1
20260902045306 72 0.0 0.0 0.00 0.00 0.00 59 1012.1
20260902044750 72 0.0 0.0 0.00 0.00 0.00 59 1012.1
20260902044257 71 0.0 0.0 0.00 0.00 0.00 59 1012.2
20260902043254 70 0.0 0.0 0.00 0.00 0.00 60 1012.2
20260902042800 69 0.0 0.0 0.00 0.00 0.00 61 1012.2
20260902042249 69 0.0 0.0 0.00 0.00 0.00 62 1012.2
20260902041753 68 0.0 0.0 0.00 0.00 0.00 65 1012.3
20260902041303 69 0.0 0.0 0.00 0.00 0.00 64 1012.4
20260902040752 69 0.0 0.0 0.00 0.00 0.00 64 1012.3
20260902035803 69 0.0 0.0 0.00 0.00 0.00 65 1012.4
20260902035254 69 0.0 0.0 0.00 0.00 0.00 65 1012.5
20260902034802 69 0.0 0.0 0.00 0.00 0.00 64 1012.6
20260902034252 69 0.0 0.0 0.00 0.00 0.00 64 1012.6
20260902033759 69 0.0 0.0 0.00 0.00 0.00 66 1012.6
20260902033249 68 0.0 0.0 0.00 0.00 0.00 65 1012.5
20260902032756 68 0.0 0.0 0.00 0.00 0.00 69 1012.6
20260902032305 68 0.0 0.0 0.00 0.00 0.00 69 1012.7
20260902031753 68 0.0 0.0 0.00 0.00 0.00 69 1012.8
20260902031301 69 0.0 0.0 0.00 0.00 0.00 69 1012.8
20260902030746 69 0.0 0.0 0.00 0.00 0.00 69 1012.8
20260902030257 69 0.0 0.0 0.00 0.00 0.00 70 1012.8
20260902025803 69 0.0 0.0 0.00 0.00 0.00 70 1012.8
20260902025252 69 0.0 0.0 0.00 0.00 0.00 71 1012.9
20260902024755 69 0.0 0.0 0.00 0.00 0.00 72 1012.8
20260902024246 69 0.0 0.0 0.00 0.00 0.00 73 1012.8
20260902023300 69 0.0 0.0 0.00 0.00 0.00 74 1012.8
20260902022749 70 0.0 0.0 0.00 0.00 0.00 74 1012.7
20260902022256 70 0.0 0.0 0.00 0.00 0.00 75 1012.7
20260902021746 70 0.0 0.0 0.00 0.00 0.00 76 1012.7
20260902021257 70 0.0 0.0 0.00 0.00 0.00 76 1012.7
20260902020747 70 0.0 0.0 0.00 0.00 0.00 77 1012.7
20260902020255 70 0.0 0.0 0.00 0.00 0.00 79 1012.7
20260902015805 71 0.0 0.0 0.00 0.00 0.00 79 1012.6
20260902015253 71 0.0 0.0 0.00 0.00 0.00 80 1012.7
20260902014304 71 0.0 0.0 0.00 0.00 0.00 77 1012.8
20260902013754 71 0.0 0.0 0.00 0.00 0.00 78 1012.7
20260902013259 71 0.0 0.0 0.00 0.00 0.00 78 1012.8
20260902012804 72 0.0 0.0 0.00 0.00 0.00 79 1012.7
20260902012254 72 0.0 0.0 0.00 0.00 0.00 79 1012.7
20260902011804 72 0.0 0.0 0.00 0.00 0.00 80 1012.7
20260902011253 72 0.0 0.0 0.00 0.00 0.00 80 1012.7
20260902010802 72 0.0 0.0 0.00 0.00 0.00 81 1012.7
20260902010253 73 0.0 0.0 0.00 0.00 0.00 82 1012.7
20260902005801 73 0.0 0.0 0.00 0.00 0.00 83 1012.5
20260902005252 73 0.0 0.0 0.00 0.00 0.00 84 1012.5
20260902004758 73 0.0 0.0 0.00 0.00 0.00 84 1012.5
20260902004306 74 0.0 0.0 0.00 0.00 0.00 85 1012.5
20260902003755 74 0.0 0.0 0.00 0.00 0.00 85 1012.5
20260902003302 74 0.0 0.0 0.00 0.00 0.00 86 1012.5
20260902002752 74 0.0 0.0 0.00 0.00 0.00 86 1012.3
20260902001748 75 0.0 0.0 0.00 0.00 0.00 86 1012.3
20260902001257 76 0.0 0.0 0.00 0.00 0.00 86 1012.3
20260902000808 76 0.0 0.0 0.00 0.00 0.00 85 1012.3
20260902000249 76 0.0 0.0 0.00 0.00 0.00 85 1012.3
20260901235800 77 0.0 0.0 0.00 0.00 0.00 84 1012.3
20260901235310 78 0.0 0.0 0.00 0.00 0.00 82 1012.3
20260901234759 78 0.0 0.0 0.00 0.00 0.00 81 1012.3
20260901234311 79 0.0 0.0 0.00 0.00 0.00 80 1012.2
20260901233758 80 0.0 0.0 0.00 0.00 0.00 78 1012.3
20260901233308 79 0.0 0.0 0.00 0.00 0.00 73 1012.3
20260901232754 80 0.0 0.0 0.00 0.00 0.00 72 1012.3
20260901232306 80 0.0 0.0 0.00 0.00 0.00 72 1012.4
20260901231751 80 0.0 0.0 0.00 0.00 0.00 71 1012.4
20260901231258 80 0.0 0.0 0.00 0.00 0.00 71 1012.4
20260901230749 80 0.0 0.0 0.00 0.00 0.00 71 1012.4
20260901230258 80 0.0 0.0 0.00 0.00 0.00 71 1012.5
20260901225804 80 0.0 0.0 0.00 0.00 0.00 72 1012.5
20260901225253 80 0.0 0.0 0.00 0.00 0.00 71 1012.5
20260901224800 81 0.0 0.0 0.00 0.00 0.00 72 1012.6